Year,Month,Day,Hour,Minute,Value (Times are PST for temperature in C)
2019,03,21,00,00,7.70
2019,03,21,00,01,7.70
2019,03,21,00,02,7.70
2019,03,21,00,03,7.70
2019,03,21,00,04,7.70
2019,03,21,00,05,7.70
2019,03,21,00,06,7.70
2019,03,21,00,07,7.70
2019,03,21,00,08,7.70
2019,03,21,00,09,7.70
2019,03,21,00,10,7.70
2019,03,21,00,11,7.70
2019,03,21,01,53,6.00
2019,03,21,01,54,6.00
2019,03,21,01,55,5.90
2019,03,21,01,56,5.90
2019,03,21,01,57,5.90
2019,03,21,01,58,5.80
2019,03,21,01,59,5.80
2019,03,21,02,00,5.80
2019,03,21,02,01,5.80
2019,03,21,02,02,5.80
2019,03,21,02,03,5.80
2019,03,21,02,04,5.70
2019,03,21,02,05,5.70
2019,03,21,02,06,5.70
2019,03,21,02,07,5.70
2019,03,21,02,08,5.70
2019,03,21,02,09,5.70
2019,03,21,02,10,5.70
2019,03,21,02,11,5.70
2019,03,21,02,12,5.70
2019,03,21,02,13,5.70
2019,03,21,02,14,5.70
2019,03,21,02,15,5.70
2019,03,21,02,16,5.70
2019,03,21,02,17,5.70
2019,03,21,02,18,5.60
2019,03,21,02,19,5.60
2019,03,21,02,20,5.60
2019,03,21,02,21,5.60
2019,03,21,02,22,5.60
2019,03,21,02,23,5.60
2019,03,21,02,24,5.50
2019,03,21,02,25,5.50
2019,03,21,02,26,5.50
2019,03,21,02,27,5.40
2019,03,21,02,28,5.40
2019,03,21,02,29,5.40
2019,03,21,02,30,5.40
2019,03,21,02,31,5.40
2019,03,21,02,32,5.40
2019,03,21,02,33,5.30
2019,03,21,02,34,5.30
2019,03,21,02,35,5.40
2019,03,21,02,36,5.40
2019,03,21,02,37,5.40
2019,03,21,02,38,5.40
2019,03,21,02,39,5.40
2019,03,21,02,40,5.40
2019,03,21,02,41,5.40
2019,03,21,02,42,5.30
2019,03,21,02,43,5.40
2019,03,21,02,44,5.30
2019,03,21,02,45,5.30
2019,03,21,02,46,5.30
2019,03,21,02,47,5.30
2019,03,21,02,48,5.30
2019,03,21,02,49,5.30
2019,03,21,02,50,5.30
2019,03,21,02,51,5.20
2019,03,21,02,52,5.20
2019,03,21,02,53,5.20
2019,03,21,02,54,5.10
2019,03,21,02,55,5.10
2019,03,21,02,56,5.10
2019,03,21,02,57,5.10
2019,03,21,02,58,5.00
2019,03,21,02,59,5.00
2019,03,21,03,00,5.00
2019,03,21,03,01,4.90
2019,03,21,03,02,4.90
2019,03,21,03,03,4.90
2019,03,21,03,04,4.90
2019,03,21,03,05,4.80
2019,03,21,03,06,4.80
2019,03,21,03,07,4.80
2019,03,21,03,08,4.80
2019,03,21,03,09,4.80
2019,03,21,03,10,4.80
2019,03,21,03,11,4.80
2019,03,21,03,12,4.80
2019,03,21,03,13,4.80
2019,03,21,03,14,4.70
2019,03,21,03,15,4.70
2019,03,21,03,16,4.70
2019,03,21,03,17,4.70
2019,03,21,03,18,4.70
2019,03,21,03,19,4.70
2019,03,21,03,20,4.70
2019,03,21,03,21,4.70
2019,03,21,03,22,4.70
2019,03,21,03,23,4.60
2019,03,21,03,24,4.60
2019,03,21,03,25,4.60
2019,03,21,03,26,4.60
2019,03,21,03,27,4.60
2019,03,21,03,28,4.60
2019,03,21,03,29,4.60
2019,03,21,03,30,4.60
2019,03,21,03,31,4.50
2019,03,21,03,32,4.50
2019,03,21,03,33,4.50
2019,03,21,03,34,4.50
2019,03,21,03,35,4.50
2019,03,21,03,36,4.50
2019,03,21,03,37,4.50
2019,03,21,03,38,4.50
2019,03,21,03,39,4.50
2019,03,21,03,40,4.50
2019,03,21,03,41,4.60
2019,03,21,03,42,4.60
2019,03,21,03,43,4.60
2019,03,21,03,44,4.60
2019,03,21,03,45,4.60
2019,03,21,03,46,4.60
2019,03,21,03,47,4.60
2019,03,21,03,48,4.60
2019,03,21,03,49,4.60
2019,03,21,03,50,4.60
2019,03,21,03,51,4.60
2019,03,21,03,52,4.60
2019,03,21,03,53,4.60
2019,03,21,03,54,4.60
2019,03,21,03,55,4.60
2019,03,21,03,56,4.60
2019,03,21,03,57,4.60
2019,03,21,03,58,4.60
2019,03,21,03,59,4.60
2019,03,21,04,00,4.60
2019,03,21,04,01,4.60
2019,03,21,04,02,4.50
2019,03,21,04,03,4.50
2019,03,21,04,04,4.40
2019,03,21,04,05,4.40
2019,03,21,04,06,4.40
2019,03,21,04,07,4.30
2019,03,21,04,08,4.30
2019,03,21,04,09,4.30
2019,03,21,04,10,4.30
2019,03,21,04,11,4.20
2019,03,21,04,12,4.20
2019,03,21,04,13,4.20
2019,03,21,04,14,4.10
2019,03,21,04,15,4.10
2019,03,21,04,16,4.10
2019,03,21,04,17,4.10
2019,03,21,04,18,4.10
2019,03,21,04,19,4.10
2019,03,21,04,20,4.10
2019,03,21,04,21,4.10
2019,03,21,04,22,4.10
2019,03,21,04,23,4.10
2019,03,21,04,24,4.10
2019,03,21,04,25,4.10
2019,03,21,04,26,4.00
2019,03,21,04,27,4.00
2019,03,21,04,28,4.00
2019,03,21,04,29,4.00
2019,03,21,04,30,4.00
2019,03,21,04,31,4.00
2019,03,21,04,32,4.00
2019,03,21,04,33,4.00
2019,03,21,04,34,3.90
2019,03,21,04,35,3.90
2019,03,21,04,36,3.90
2019,03,21,04,37,3.90
2019,03,21,04,38,3.90
2019,03,21,04,39,4.00
2019,03,21,04,40,4.00
2019,03,21,04,41,4.00
2019,03,21,04,42,4.00
2019,03,21,04,43,4.00
2019,03,21,04,44,4.10
2019,03,21,04,45,4.10
2019,03,21,04,46,4.10
2019,03,21,04,47,4.20
2019,03,21,04,48,4.20
2019,03,21,04,49,4.20
2019,03,21,04,50,4.20
2019,03,21,04,51,4.20
2019,03,21,04,52,4.20
2019,03,21,04,53,4.20
2019,03,21,04,54,4.20
2019,03,21,04,55,4.10
2019,03,21,04,56,4.10
2019,03,21,04,57,4.00
2019,03,21,04,58,4.00
2019,03,21,04,59,3.90
2019,03,21,05,00,3.80
2019,03,21,05,01,3.80
2019,03,21,05,02,3.70
2019,03,21,05,03,3.70
2019,03,21,05,04,3.60
2019,03,21,05,05,3.60
2019,03,21,05,06,3.60
2019,03,21,05,07,3.60
2019,03,21,05,08,3.60
2019,03,21,05,09,3.60
2019,03,21,05,10,3.60
2019,03,21,05,11,3.60
2019,03,21,05,12,3.60
2019,03,21,05,13,3.60
2019,03,21,05,14,3.60
2019,03,21,05,15,3.60
2019,03,21,05,16,3.50
2019,03,21,05,17,3.50
2019,03,21,05,18,3.50
2019,03,21,05,19,3.50
2019,03,21,05,20,3.50
2019,03,21,05,21,3.50
2019,03,21,05,22,3.50
2019,03,21,05,23,3.50
2019,03,21,05,24,3.50
2019,03,21,05,25,3.50
2019,03,21,05,26,3.50
2019,03,21,05,27,3.50
2019,03,21,05,28,3.50
2019,03,21,05,29,3.50
2019,03,21,05,30,3.50
2019,03,21,05,31,3.40
2019,03,21,05,32,3.40
2019,03,21,05,33,3.40
2019,03,21,05,34,3.40
2019,03,21,05,35,3.40
2019,03,21,05,36,3.40
2019,03,21,05,37,3.40
2019,03,21,05,38,3.40
2019,03,21,05,39,3.40
2019,03,21,05,40,3.40
2019,03,21,05,41,3.40
2019,03,21,05,42,3.40
2019,03,21,05,43,3.40
2019,03,21,05,44,3.40
2019,03,21,05,45,3.40
2019,03,21,05,46,3.40
2019,03,21,05,47,3.30
2019,03,21,05,48,3.40
2019,03,21,05,49,3.40
2019,03,21,05,50,3.40
2019,03,21,05,51,3.40
2019,03,21,05,52,3.40
2019,03,21,05,53,3.40
2019,03,21,05,54,3.40
2019,03,21,05,55,3.40
2019,03,21,05,56,3.40
2019,03,21,05,57,3.40
2019,03,21,05,58,3.40
2019,03,21,05,59,3.40
2019,03,21,06,00,3.40
2019,03,21,06,01,3.40
2019,03,21,06,02,3.40
2019,03,21,06,03,3.40
2019,03,21,06,04,3.40
2019,03,21,06,05,3.30
2019,03,21,06,06,3.30
2019,03,21,06,07,3.30
2019,03,21,06,08,3.30
2019,03,21,06,09,3.30
2019,03,21,06,10,3.20
2019,03,21,06,11,3.20
2019,03,21,06,12,3.20
2019,03,21,06,13,3.20
2019,03,21,06,14,3.20
2019,03,21,06,15,3.20
2019,03,21,06,16,3.20
2019,03,21,06,17,3.20
2019,03,21,06,18,3.20
2019,03,21,06,19,3.20
2019,03,21,06,20,3.20
2019,03,21,06,21,3.20
2019,03,21,06,22,3.20
2019,03,21,06,23,3.20
2019,03,21,06,24,3.20
2019,03,21,06,25,3.20
2019,03,21,06,26,3.20
2019,03,21,06,27,3.20
2019,03,21,06,28,3.30
2019,03,21,06,29,3.30
2019,03,21,06,30,3.30
2019,03,21,06,31,3.30
2019,03,21,06,32,3.30
2019,03,21,06,33,3.30
2019,03,21,06,34,3.20
2019,03,21,06,35,3.20
2019,03,21,06,36,3.20
2019,03,21,06,37,3.20
2019,03,21,06,38,3.20
2019,03,21,06,39,3.10
2019,03,21,06,40,3.10
2019,03,21,06,41,3.10
2019,03,21,06,42,3.10
2019,03,21,06,43,3.10
2019,03,21,06,44,3.10
2019,03,21,06,45,3.10
2019,03,21,06,46,3.10
2019,03,21,06,47,3.10
2019,03,21,06,48,3.10
2019,03,21,06,49,3.10
2019,03,21,06,50,3.00
2019,03,21,06,51,3.00
2019,03,21,06,52,3.00
2019,03,21,06,53,3.00
2019,03,21,06,54,3.00
2019,03,21,06,55,2.90
2019,03,21,06,56,2.90
2019,03,21,06,57,2.90
2019,03,21,06,58,2.90
2019,03,21,06,59,3.00
2019,03,21,07,00,3.00
2019,03,21,07,01,3.00
2019,03,21,07,02,3.00
2019,03,21,07,03,3.00
2019,03,21,07,04,3.00
2019,03,21,07,05,3.00
2019,03,21,07,06,3.00
2019,03,21,07,07,3.00
2019,03,21,07,08,2.90
2019,03,21,07,09,2.90
2019,03,21,07,10,2.90
2019,03,21,07,11,3.00
2019,03,21,07,12,3.00
2019,03,21,07,13,3.00
2019,03,21,07,14,3.00
2019,03,21,07,15,2.90
2019,03,21,07,16,2.90
2019,03,21,07,17,2.90
2019,03,21,07,18,2.90
2019,03,21,07,19,2.90
2019,03,21,07,20,2.90
2019,03,21,07,21,2.90
2019,03,21,07,22,2.90
2019,03,21,07,23,2.90
2019,03,21,07,24,2.90
2019,03,21,07,25,2.90
2019,03,21,07,26,2.90
2019,03,21,07,27,2.90
2019,03,21,07,28,2.90
2019,03,21,07,29,2.90
2019,03,21,07,30,2.90
2019,03,21,07,31,2.80
2019,03,21,07,32,2.80
2019,03,21,07,33,2.80
2019,03,21,07,34,2.80
2019,03,21,07,35,2.80
2019,03,21,07,36,2.80
2019,03,21,07,37,2.80
2019,03,21,07,38,2.80
2019,03,21,07,39,2.90
2019,03,21,07,40,2.80
2019,03,21,07,41,2.90
2019,03,21,07,42,2.90
2019,03,21,07,43,2.90
2019,03,21,07,44,2.90
2019,03,21,07,45,2.90
2019,03,21,07,46,2.90
2019,03,21,07,47,2.90
2019,03,21,07,48,2.90
2019,03,21,07,49,2.90
2019,03,21,07,50,2.90
2019,03,21,07,51,2.90
2019,03,21,07,52,3.00
2019,03,21,07,53,3.00
2019,03,21,07,54,3.00
2019,03,21,07,55,3.10
2019,03,21,07,56,3.10
2019,03,21,07,57,3.10
2019,03,21,07,58,3.10
2019,03,21,07,59,3.20
2019,03,21,08,00,3.20
2019,03,21,08,01,3.20
2019,03,21,08,02,3.20
2019,03,21,08,03,3.30
2019,03,21,08,04,3.30
2019,03,21,08,05,3.30
2019,03,21,08,06,3.30
2019,03,21,08,07,3.40
2019,03,21,08,08,3.40
2019,03,21,08,09,3.40
2019,03,21,08,10,3.40
2019,03,21,08,11,3.40
2019,03,21,08,12,3.50
2019,03,21,08,13,3.50
2019,03,21,08,14,3.60
2019,03,21,08,15,3.60
2019,03,21,08,16,3.70
2019,03,21,08,17,3.70
2019,03,21,08,18,3.80
2019,03,21,08,19,3.80
2019,03,21,08,20,3.90
2019,03,21,08,21,4.00
2019,03,21,08,22,4.00
2019,03,21,08,23,4.10
2019,03,21,08,24,4.10
2019,03,21,08,25,4.20
2019,03,21,08,26,4.20
2019,03,21,08,27,4.30
2019,03,21,08,28,4.30
2019,03,21,08,29,4.40
2019,03,21,08,30,4.40
2019,03,21,08,31,4.40
2019,03,21,08,32,4.50
2019,03,21,08,33,4.60
2019,03,21,08,34,4.60
2019,03,21,08,35,4.70
2019,03,21,08,36,4.70
2019,03,21,08,37,4.80
2019,03,21,08,38,4.80
2019,03,21,08,39,4.90
2019,03,21,08,40,4.90
2019,03,21,08,41,5.00
2019,03,21,08,42,5.10
2019,03,21,08,43,5.10
2019,03,21,08,44,5.20
2019,03,21,08,45,5.20
2019,03,21,08,46,5.30
2019,03,21,08,47,5.30
2019,03,21,08,48,5.30
2019,03,21,08,49,5.40
2019,03,21,08,50,5.40
2019,03,21,08,51,5.50
2019,03,21,08,52,5.50
2019,03,21,08,53,5.60
2019,03,21,08,54,5.70
2019,03,21,08,55,5.80
2019,03,21,08,56,5.80
2019,03,21,08,57,5.90
2019,03,21,08,58,6.00
2019,03,21,08,59,6.10
2019,03,21,09,00,6.20
2019,03,21,09,01,6.30
2019,03,21,09,02,6.40
2019,03,21,09,03,6.40
2019,03,21,09,04,6.50
2019,03,21,09,05,6.60
2019,03,21,09,06,6.70
2019,03,21,09,07,6.80
2019,03,21,09,08,6.90
2019,03,21,09,09,7.00
2019,03,21,09,10,7.10
2019,03,21,09,11,7.20
2019,03,21,09,12,7.30
2019,03,21,09,13,7.40
2019,03,21,09,14,7.50
2019,03,21,09,15,7.60
2019,03,21,09,16,7.70
2019,03,21,09,17,7.80
2019,03,21,09,18,7.90
2019,03,21,09,19,8.00
2019,03,21,09,20,8.00
2019,03,21,09,21,8.20
2019,03,21,09,22,8.30
2019,03,21,09,23,8.40
2019,03,21,09,24,8.50
2019,03,21,09,25,8.60
2019,03,21,09,26,8.70
2019,03,21,09,27,8.80
2019,03,21,09,28,8.90
2019,03,21,09,29,9.00
2019,03,21,09,30,9.10
2019,03,21,09,31,9.20
2019,03,21,09,32,9.30
2019,03,21,09,33,9.40
2019,03,21,09,34,9.50
2019,03,21,09,35,9.60
2019,03,21,09,36,9.60
2019,03,21,09,37,9.70
2019,03,21,09,38,9.80
2019,03,21,09,39,9.80
2019,03,21,09,40,9.80
2019,03,21,09,41,9.90
2019,03,21,09,42,10.00
2019,03,21,09,43,10.10
2019,03,21,09,44,10.20
2019,03,21,09,45,10.30
2019,03,21,09,46,10.40
2019,03,21,09,47,10.40
2019,03,21,09,48,10.50
2019,03,21,09,49,10.60
2019,03,21,09,50,10.70
2019,03,21,09,51,10.70
2019,03,21,09,52,10.80
2019,03,21,09,53,10.90
2019,03,21,09,54,11.00
2019,03,21,09,55,11.10
2019,03,21,09,56,11.20
2019,03,21,09,57,11.20
2019,03,21,09,58,11.30
2019,03,21,09,59,11.40
2019,03,21,10,00,11.40
2019,03,21,10,01,11.40
2019,03,21,10,02,11.40
2019,03,21,10,03,11.40
2019,03,21,10,04,11.50
2019,03,21,10,05,11.50
2019,03,21,10,06,11.60
2019,03,21,10,07,11.70
2019,03,21,10,08,11.80
2019,03,21,10,09,11.80
2019,03,21,10,10,11.90
2019,03,21,10,11,12.00
2019,03,21,10,12,12.10
2019,03,21,10,13,12.10
2019,03,21,10,14,12.10
2019,03,21,10,15,12.20
2019,03,21,10,16,12.20
2019,03,21,10,17,12.20
2019,03,21,10,18,12.20
2019,03,21,10,19,12.20
2019,03,21,10,20,12.20
2019,03,21,10,21,12.20
2019,03,21,10,22,12.30
2019,03,21,10,23,12.30
2019,03,21,10,24,12.20
2019,03,21,10,25,12.20
2019,03,21,10,26,12.20
2019,03,21,10,27,12.20
2019,03,21,10,28,12.20
2019,03,21,10,29,12.20
2019,03,21,10,30,12.20
2019,03,21,10,31,12.20
2019,03,21,10,32,12.10
2019,03,21,10,33,12.10
2019,03,21,10,34,12.00
2019,03,21,10,35,12.00
2019,03,21,10,36,12.00
2019,03,21,10,37,12.00
2019,03,21,10,38,12.00
2019,03,21,10,39,12.00
2019,03,21,10,40,12.00
2019,03,21,10,41,12.10
2019,03,21,10,42,12.10
2019,03,21,10,43,12.10
2019,03,21,10,44,12.20
2019,03,21,10,45,12.20
2019,03,21,10,46,12.20
2019,03,21,10,47,12.20
2019,03,21,10,48,12.30
2019,03,21,10,49,12.30
2019,03,21,10,50,12.30
2019,03,21,10,51,12.30
2019,03,21,10,52,12.40
2019,03,21,10,53,12.40
2019,03,21,10,54,12.50
2019,03,21,10,55,12.50
2019,03,21,10,56,12.50
2019,03,21,10,57,12.40
2019,03,21,10,58,12.40
2019,03,21,10,59,12.40
2019,03,21,11,00,12.40
2019,03,21,11,01,12.40
2019,03,21,11,02,12.30
2019,03,21,11,03,12.30
2019,03,21,11,04,12.30
2019,03,21,11,05,12.40
2019,03,21,11,06,12.40
2019,03,21,11,07,12.50
2019,03,21,11,08,12.60
2019,03,21,11,09,12.50
2019,03,21,11,10,12.50
2019,03,21,11,11,12.50
2019,03,21,11,12,12.40
2019,03,21,11,13,12.40
2019,03,21,11,14,12.30
2019,03,21,11,15,12.30
2019,03,21,11,16,12.30
2019,03,21,11,17,12.30
2019,03,21,11,18,12.30
2019,03,21,11,19,12.20
2019,03,21,11,20,12.20
2019,03,21,11,21,12.20
2019,03,21,11,22,12.10
2019,03,21,11,23,12.10
2019,03,21,11,24,12.20
2019,03,21,11,25,12.20
2019,03,21,11,26,12.30
2019,03,21,11,27,12.30
2019,03,21,11,28,12.40
2019,03,21,11,29,12.40
2019,03,21,11,30,12.40
2019,03,21,11,31,12.40
2019,03,21,11,32,12.40
2019,03,21,11,33,12.50
2019,03,21,11,34,12.50
2019,03,21,11,35,12.60
2019,03,21,11,36,12.60
2019,03,21,11,37,12.60
2019,03,21,11,38,12.60
2019,03,21,11,39,12.60
2019,03,21,11,40,12.60
2019,03,21,11,41,12.60
2019,03,21,11,42,12.70
2019,03,21,11,43,12.70
2019,03,21,11,44,12.70
2019,03,21,11,45,12.70
2019,03,21,11,46,12.70
2019,03,21,11,47,12.80
2019,03,21,11,48,12.80
2019,03,21,11,49,12.80
2019,03,21,11,50,12.80
2019,03,21,11,51,12.90
2019,03,21,11,52,12.90
2019,03,21,11,53,12.80
2019,03,21,11,54,12.80
2019,03,21,11,55,12.80
2019,03,21,11,56,12.80
2019,03,21,11,57,12.70
2019,03,21,11,58,12.70
2019,03,21,11,59,12.60
2019,03,21,12,00,12.50
2019,03,21,12,01,12.40
2019,03,21,12,02,12.40
2019,03,21,12,03,12.30
2019,03,21,12,04,12.30
2019,03,21,12,05,12.20
2019,03,21,12,06,12.30
2019,03,21,12,07,12.30
2019,03,21,12,08,12.30
2019,03,21,12,09,12.30
2019,03,21,12,10,12.40
2019,03,21,12,11,12.40
2019,03,21,12,12,12.40
2019,03,21,12,13,12.40
2019,03,21,12,14,12.50
2019,03,21,12,15,12.60
2019,03,21,12,16,12.60
2019,03,21,12,17,12.50
2019,03,21,12,18,12.50
2019,03,21,12,19,12.50
2019,03,21,12,20,12.50
2019,03,21,12,21,12.50
2019,03,21,12,22,12.50
2019,03,21,12,23,12.40
2019,03,21,12,24,12.40
2019,03,21,12,25,12.40
2019,03,21,12,26,12.40
2019,03,21,12,27,12.30
2019,03,21,12,28,12.30
2019,03,21,12,29,12.30
2019,03,21,12,30,12.40
2019,03,21,12,31,12.40
2019,03,21,12,32,12.50
2019,03,21,12,33,12.60
2019,03,21,12,34,12.60
2019,03,21,12,35,12.70
2019,03,21,12,36,12.70
2019,03,21,12,37,12.70
2019,03,21,12,38,12.80
2019,03,21,12,39,12.80
2019,03,21,12,40,12.80
2019,03,21,12,41,12.80
2019,03,21,12,42,12.80
2019,03,21,12,43,12.80
2019,03,21,12,44,12.90
2019,03,21,12,45,12.90
2019,03,21,12,46,12.90
2019,03,21,12,47,12.90
2019,03,21,12,48,12.90
2019,03,21,12,49,12.90
2019,03,21,12,50,12.90
2019,03,21,12,51,12.90
2019,03,21,12,52,12.90
2019,03,21,12,53,13.00
2019,03,21,12,54,13.00
2019,03,21,12,55,13.00
2019,03,21,12,56,13.10
2019,03,21,12,57,13.10
2019,03,21,12,58,13.00
2019,03,21,12,59,13.00
2019,03,21,13,00,13.00
2019,03,21,13,01,12.90
2019,03,21,13,02,12.90
2019,03,21,13,03,12.80
2019,03,21,13,04,12.80
2019,03,21,13,05,12.70
2019,03,21,13,06,12.70
2019,03,21,13,07,12.70
2019,03,21,13,08,12.70
2019,03,21,13,09,12.70
2019,03,21,13,10,12.60
2019,03,21,13,11,12.60
2019,03,21,13,12,12.70
2019,03,21,13,13,12.70
2019,03,21,13,14,12.70
2019,03,21,13,15,12.70
2019,03,21,13,16,12.70
2019,03,21,13,17,12.70
2019,03,21,13,18,12.70
2019,03,21,13,19,12.70
2019,03,21,13,20,12.70
2019,03,21,13,21,12.70
2019,03,21,13,22,12.70
2019,03,21,13,23,12.70
2019,03,21,13,24,12.70
2019,03,21,13,25,12.70
2019,03,21,13,26,12.70
2019,03,21,13,27,12.70
2019,03,21,13,28,12.70
2019,03,21,13,29,12.70
2019,03,21,13,30,12.70
2019,03,21,13,31,12.80
2019,03,21,13,32,12.90
2019,03,21,13,33,13.00
2019,03,21,13,34,13.10
2019,03,21,13,35,13.20
2019,03,21,13,36,13.30
2019,03,21,13,37,13.40
2019,03,21,13,38,13.40
2019,03,21,13,39,13.40
2019,03,21,13,40,13.50
2019,03,21,13,41,13.50
2019,03,21,13,42,13.60
2019,03,21,13,43,13.70
2019,03,21,13,44,13.80
2019,03,21,13,45,13.80
2019,03,21,13,46,13.80
2019,03,21,13,47,13.90
2019,03,21,13,48,13.90
2019,03,21,13,49,13.90
2019,03,21,13,50,14.00
2019,03,21,13,51,14.00
2019,03,21,13,52,14.10
2019,03,21,13,53,14.20
2019,03,21,13,54,14.20
2019,03,21,13,55,14.30
2019,03,21,13,56,14.30
2019,03,21,13,57,14.30
2019,03,21,13,58,14.30
2019,03,21,13,59,14.30
2019,03,21,14,00,14.30
2019,03,21,14,01,14.20
2019,03,21,14,02,14.20
2019,03,21,14,03,14.10
2019,03,21,14,04,14.10
2019,03,21,14,05,14.10
2019,03,21,14,06,14.10
2019,03,21,14,07,14.10
2019,03,21,14,08,14.10
2019,03,21,14,09,14.20
2019,03,21,14,10,14.20
2019,03,21,14,11,14.20
2019,03,21,14,12,14.20
2019,03,21,14,13,14.20
2019,03,21,14,14,14.20
2019,03,21,14,15,14.20
2019,03,21,14,16,14.20
2019,03,21,14,17,14.20
2019,03,21,14,18,14.30
2019,03,21,14,19,14.30
2019,03,21,14,20,14.40
2019,03,21,14,21,14.40
2019,03,21,14,22,14.40
2019,03,21,14,23,14.40
2019,03,21,14,24,14.40
2019,03,21,14,25,14.40
2019,03,21,14,26,14.40
2019,03,21,14,27,14.30
2019,03,21,14,28,14.30
2019,03,21,14,29,14.30
2019,03,21,14,30,14.30
2019,03,21,14,31,14.30
2019,03,21,14,32,14.20
2019,03,21,14,33,14.10
2019,03,21,14,34,14.10
2019,03,21,14,35,14.00
2019,03,21,14,36,14.00
2019,03,21,14,37,13.90
2019,03,21,14,38,13.80
2019,03,21,14,39,13.80
2019,03,21,14,40,13.70
2019,03,21,14,41,13.60
2019,03,21,14,42,13.50
2019,03,21,14,43,13.50
2019,03,21,14,44,13.50
2019,03,21,14,45,13.60
2019,03,21,14,46,13.60
2019,03,21,14,47,13.50
2019,03,21,14,48,13.50
2019,03,21,14,49,13.50
2019,03,21,14,50,13.50
2019,03,21,14,51,13.60
2019,03,21,14,52,13.60
2019,03,21,14,53,13.70
2019,03,21,14,54,13.80
2019,03,21,14,55,13.80
2019,03,21,14,56,13.80
2019,03,21,14,57,13.80
2019,03,21,14,58,13.80
2019,03,21,14,59,13.70
2019,03,21,15,00,13.70
2019,03,21,15,01,13.70
2019,03,21,15,02,13.80
2019,03,21,15,03,13.80
2019,03,21,15,04,13.90
2019,03,21,15,05,13.90
2019,03,21,15,06,13.90
2019,03,21,15,07,14.00
2019,03,21,15,08,14.00
2019,03,21,15,09,14.10
2019,03,21,15,10,14.20
2019,03,21,15,11,14.20
2019,03,21,15,12,14.20
2019,03,21,15,13,14.20
2019,03,21,15,14,14.20
2019,03,21,15,15,14.20
2019,03,21,15,16,14.20
2019,03,21,15,17,14.20
2019,03,21,15,18,14.20
2019,03,21,15,19,14.30
2019,03,21,15,20,14.30
2019,03,21,15,21,14.30
2019,03,21,15,22,14.30
2019,03,21,15,23,14.30
2019,03,21,15,24,14.30
2019,03,21,15,25,14.30
2019,03,21,15,26,14.30
2019,03,21,15,27,14.30
2019,03,21,15,28,14.20
2019,03,21,15,29,14.10
2019,03,21,15,30,14.10
2019,03,21,15,31,14.10
2019,03,21,15,32,14.20
2019,03,21,15,33,14.20
2019,03,21,15,34,14.20
2019,03,21,15,35,14.10
2019,03,21,15,36,14.10
2019,03,21,15,37,14.00
2019,03,21,15,38,14.00
2019,03,21,15,39,14.10
2019,03,21,15,40,14.10
2019,03,21,15,41,14.10
2019,03,21,15,42,14.20
2019,03,21,15,43,14.20
2019,03,21,15,44,14.20
2019,03,21,15,45,14.20
2019,03,21,15,46,14.30
2019,03,21,15,47,14.30
2019,03,21,15,48,14.30
2019,03,21,15,49,14.30
2019,03,21,15,50,14.30
2019,03,21,15,51,14.30
2019,03,21,15,52,14.30
2019,03,21,15,53,14.30
2019,03,21,15,54,14.30
2019,03,21,15,55,14.30
2019,03,21,15,56,14.30
2019,03,21,15,57,14.30
2019,03,21,15,58,14.20
2019,03,21,15,59,14.20
2019,03,21,16,00,14.10
2019,03,21,16,01,14.10
2019,03,21,16,02,14.20
2019,03,21,16,03,14.20
2019,03,21,16,04,14.20
2019,03,21,16,05,14.20
2019,03,21,16,06,14.20
2019,03,21,16,07,14.20
2019,03,21,16,08,14.20
2019,03,21,16,09,14.20
2019,03,21,16,10,14.20
2019,03,21,16,11,14.20
2019,03,21,16,12,14.20
2019,03,21,16,13,14.20
2019,03,21,16,14,14.30
2019,03,21,16,15,14.30
2019,03,21,16,16,14.20
2019,03,21,16,17,14.20
2019,03,21,16,18,14.20
2019,03,21,16,19,14.20
2019,03,21,16,20,14.10
2019,03,21,16,21,14.10
2019,03,21,16,22,14.10
2019,03,21,16,23,14.10
2019,03,21,16,24,14.00
2019,03,21,16,25,13.90
2019,03,21,16,26,13.80
2019,03,21,16,27,13.80
2019,03,21,16,28,13.80
2019,03,21,16,29,13.70
2019,03,21,16,30,13.70
2019,03,21,16,31,13.80
2019,03,21,16,32,13.80
2019,03,21,16,33,13.80
2019,03,21,16,34,13.80
2019,03,21,16,35,13.80
2019,03,21,16,36,13.70
2019,03,21,16,37,13.70
2019,03,21,16,38,13.70
2019,03,21,16,39,13.80
2019,03,21,16,40,13.80
2019,03,21,16,41,13.70
2019,03,21,16,42,13.70
2019,03,21,16,43,13.70
2019,03,21,16,44,13.80
2019,03,21,16,45,13.80
2019,03,21,16,46,13.80
2019,03,21,16,47,13.80
2019,03,21,16,48,13.80
2019,03,21,16,49,13.80
2019,03,21,16,50,13.80
2019,03,21,16,51,13.80
2019,03,21,16,52,13.80
2019,03,21,16,53,13.80
2019,03,21,16,54,13.80
2019,03,21,16,55,13.80
2019,03,21,16,56,13.70
2019,03,21,16,57,13.70
2019,03,21,16,58,13.70
2019,03,21,16,59,13.70
2019,03,21,17,00,13.70
2019,03,21,17,01,13.70
2019,03,21,17,02,13.70
2019,03,21,17,03,13.70
2019,03,21,17,04,13.80
2019,03,21,17,05,13.80
2019,03,21,17,06,13.80
2019,03,21,17,07,13.80
2019,03,21,17,08,13.80
2019,03,21,17,09,13.80
2019,03,21,17,10,13.80
2019,03,21,17,11,13.80
2019,03,21,17,12,13.70
2019,03,21,17,13,13.70
2019,03,21,17,14,13.70
2019,03,21,17,15,13.70
2019,03,21,17,16,13.70
2019,03,21,17,17,13.70
2019,03,21,17,18,13.70
2019,03,21,17,19,13.80
2019,03,21,17,20,13.80
2019,03,21,17,21,13.80
2019,03,21,17,22,13.90
2019,03,21,17,23,13.90
2019,03,21,17,24,13.90
2019,03,21,17,25,14.00
2019,03,21,17,26,14.00
2019,03,21,17,27,14.00
2019,03,21,17,28,13.90
2019,03,21,17,29,13.90
2019,03,21,17,30,13.90
2019,03,21,17,31,13.80
2019,03,21,17,32,13.80
2019,03,21,17,33,13.80
2019,03,21,17,34,13.80
2019,03,21,17,35,13.80
2019,03,21,17,36,13.80
2019,03,21,17,37,13.80
2019,03,21,17,38,13.80
2019,03,21,17,39,13.80
2019,03,21,17,40,13.70
2019,03,21,17,41,13.70
2019,03,21,17,42,13.70
2019,03,21,17,43,13.70
2019,03,21,17,44,13.70
2019,03,21,17,45,13.80
2019,03,21,17,46,13.80
2019,03,21,17,47,13.80
2019,03,21,17,48,13.80
2019,03,21,17,49,13.80
2019,03,21,17,50,13.80
2019,03,21,17,51,13.90
2019,03,21,17,52,13.90
2019,03,21,17,53,13.90
2019,03,21,17,54,13.90
2019,03,21,17,55,13.90
2019,03,21,17,56,13.90
2019,03,21,17,57,13.90
2019,03,21,17,58,13.90
2019,03,21,17,59,13.90
2019,03,21,18,00,14.00
2019,03,21,18,01,13.90
2019,03,21,18,02,13.90
2019,03,21,18,03,13.90
2019,03,21,18,04,13.90
2019,03,21,18,05,13.90
2019,03,21,18,06,13.90
2019,03,21,18,07,13.90
2019,03,21,18,08,13.90
2019,03,21,18,09,13.90
2019,03,21,18,10,13.90
2019,03,21,18,11,13.90
2019,03,21,18,12,13.80
2019,03,21,18,13,13.80
2019,03,21,18,14,13.80
2019,03,21,18,15,13.80
2019,03,21,18,16,13.80
2019,03,21,18,17,13.80
2019,03,21,18,18,13.90
2019,03,21,18,19,13.90
2019,03,21,18,20,13.90
2019,03,21,18,21,13.90
2019,03,21,18,22,13.90
2019,03,21,18,23,13.90
2019,03,21,18,24,13.90
2019,03,21,18,25,13.90
2019,03,21,18,26,13.90
2019,03,21,18,27,13.90
2019,03,21,18,28,13.90
2019,03,21,18,29,13.90
2019,03,21,18,30,13.90
2019,03,21,18,31,13.90
2019,03,21,18,32,13.80
2019,03,21,18,33,13.80
2019,03,21,18,34,13.80
2019,03,21,18,35,13.80
2019,03,21,18,36,13.70
2019,03,21,18,37,13.70
2019,03,21,18,38,13.70
2019,03,21,18,39,13.60
2019,03,21,18,40,13.60
2019,03,21,18,41,13.60
2019,03,21,18,42,13.60
2019,03,21,18,43,13.60
2019,03,21,18,44,13.60
2019,03,21,18,45,13.60
2019,03,21,18,46,13.60
2019,03,21,18,47,13.60
2019,03,21,18,48,13.60
2019,03,21,18,49,13.60
2019,03,21,18,50,13.60
2019,03,21,18,51,13.60
2019,03,21,18,52,13.60
2019,03,21,18,53,13.60
2019,03,21,18,54,13.60
2019,03,21,18,55,13.60
2019,03,21,18,56,13.60
2019,03,21,18,57,13.60
2019,03,21,18,58,13.60
2019,03,21,18,59,13.50
2019,03,21,19,00,13.50
2019,03,21,19,01,13.50
2019,03,21,19,02,13.40
2019,03,21,19,03,13.40
2019,03,21,19,04,13.40
2019,03,21,19,05,13.30
2019,03,21,19,06,13.30
2019,03,21,19,07,13.30
2019,03,21,19,08,13.30
2019,03,21,19,09,13.30
2019,03,21,19,10,13.20
2019,03,21,19,11,13.20
2019,03,21,19,12,13.20
2019,03,21,19,13,13.10
2019,03,21,19,14,13.00
2019,03,21,19,15,13.00
2019,03,21,19,16,12.90
2019,03,21,19,17,12.90
2019,03,21,19,18,12.80
2019,03,21,19,19,12.80
2019,03,21,19,20,12.70
2019,03,21,19,21,12.70